Deer Park, WA
on Wednesday, February 27, 2013

Wednesday
Previous Day Next Day
Daily Summary
 ActualAverageRecord
Temperature
Mean Temperature °F 33°F  
Max Temperature 41°F 43°F 57°F (2005)
Min Temperature 22°F 22°F 7°F (2001)
Degree Days
Heating Degree Days 33 32  
Month to date heating degree days 940 937  
Since 1 July heating degree days 5048 5333  
Cooling Degree Days 0 0  
Month to date cooling degree days 0 0  
Year to date cooling degree days 0 0  
Moisture
Dew Point 26°F   
Average Humidity 76    
Maximum Humidity 92    
Minimum Humidity 59    
Precipitation
Precipitation 0.00 in 0.05 in 1.10 in (1999)
Month to date precipitation 0.79 1.54  
Year to date precipitation 2.29 4.17  
Wind
Wind Speed 2 mph   
Max Wind Speed 10 mph   
Max Gust Speed 12 mph   
Visibility 10 miles   
Events     

Key: T is trace of precipitation, MM is missing value
Source: NWS Daily Summary
Time(PST)TemperatureDew PointHumidity Pressure Visibility Wind DirectionWind SpeedGust SpeedPrecipitationEvents Conditions
12:53 AM 27.0°F 24.1°F 89% 30.27 in 10.0 miles ENE 4.6 mph - N/A   Overcast
1:53 AM 30.0°F 25.0°F 82% 30.26 in 10.0 miles North 4.6 mph - N/A   Overcast
2:53 AM 27.0°F 24.1°F 89% 30.26 in 10.0 miles Calm Calm - N/A   Overcast
3:53 AM 28.0°F 24.1°F 85% 30.24 in 10.0 miles NNE 3.5 mph - N/A   Overcast
4:53 AM 27.0°F 24.1°F 89% 30.26 in 10.0 miles Calm Calm - N/A   Overcast
5:53 AM 27.0°F 24.1°F 89% 30.26 in 10.0 miles Calm Calm - N/A   Overcast
7:53 AM 25.0°F 21.9°F 88% 30.29 in 10.0 miles Calm Calm - N/A   Mostly Cloudy
8:53 AM 28.0°F 24.1°F 85% 30.30 in 10.0 miles Calm Calm - N/A   Mostly Cloudy
9:53 AM 35.1°F 26.1°F 70% 30.31 in 10.0 miles Calm Calm - N/A   Partly Cloudy
10:53 AM 36.0°F 26.1°F 67% 30.32 in 10.0 miles Calm Calm - N/A   Clear
11:53 AM 39.0°F 26.1°F 60% 30.31 in 10.0 miles Calm Calm - N/A   Clear
12:53 PM 39.9°F 26.1°F 58% 30.29 in 10.0 miles Calm Calm - N/A   Clear
1:53 PM 39.0°F 27.0°F 62% 30.29 in 10.0 miles SSW 5.8 mph - N/A   Clear
2:53 PM 39.0°F 28.0°F 65% 30.30 in 10.0 miles South 6.9 mph - N/A   Partly Cloudy
3:53 PM 39.0°F 27.0°F 62% 30.29 in 10.0 miles SSW 5.8 mph - N/A   Partly Cloudy
4:53 PM 37.0°F 27.0°F 67% 30.30 in 10.0 miles Calm Calm - N/A   Mostly Cloudy
5:53 PM 37.0°F 26.1°F 65% 30.30 in 10.0 miles SW 3.5 mph - N/A   Mostly Cloudy
6:53 PM 30.9°F 26.1°F 82% 30.30 in 10.0 miles Calm Calm - N/A   Scattered Clouds
7:53 PM 30.9°F 27.0°F 85% 30.31 in 10.0 miles Calm Calm - N/A   Overcast
8:53 PM 32.0°F 27.0°F 82% 30.30 in 10.0 miles NE 3.5 mph - N/A   Overcast
9:53 PM 34.0°F 27.0°F 75% 30.30 in 10.0 miles Calm Calm - N/A   Overcast
10:53 PM 30.0°F 27.0°F 88% 30.29 in 10.0 miles ENE 3.5 mph - N/A   Overcast
11:53 PM 28.9°F 25.0°F 85% 30.29 in 10.0 miles Calm Calm - N/A   Mostly Cloudy
Moon Phase
Feb. 27 Mar. 04 Mar. 11 Mar. 19 Mar. 27
Sunrise:06:33 AM (PST) Moon Rise:08:13 PM (PST)2/27
Sunset:05:31 PM (PST) Moon Set:06:58 AM (PST)2/27

Copyright © 2014 The Weather Underground, Inc.